Regional Weather Roundup
Issued by NWS

Home | Current Version | Previous Version | Text Only | Print | Product List | Glossary On
Versions: 1 2 3 4 5 6 7 8 9 10 11 12 13 14 15 16 17 18 19 20 21 22 23 24 25 26 27 28 29 30 31 32 33 34 35 36 37 38 39 40 41 42 43 44 45 46 47 48 49 50
000
ASUS43 KLSX 012259
RWRMO

WEATHER SUMMARY FOR MISSOURI
NATIONAL WEATHER SERVICE SPRINGFIELD MO
600 PM CDT MON SEP 01 2014

NOTE: "FAIR" INDICATES FEW OR NO CLOUDS BELOW 12,000 FEET WITH NO
       SIGNIFICANT WEATHER AND/OR OBSTRUCTIONS TO VISIBILITY.
       CURRENT SKY AND/OR WEATHER CONDITIONS ARE NOT AVAILABLE FOR
       CHILLICOTHE AND FARMINGTON.

MOZ001>031-035>038-043-044-053-054-020000-
...NORTHERN AND WESTERN MISSOURI...

CITY           SKY/WX    TMP DP  RH WIND       PRES   REMARKS
KANSAS CTY INT CLOUDY    77  69  76 SW5       29.88F
KANSAS C DTWN  CLOUDY    79  68  69 NW5       29.87S
LEE`S SUMMIT   CLOUDY    77  68  73 SW3       29.88F
ST JOSEPH      MOSUNNY   79  67  66 W6        29.86F
CHILLICOTHE      N/A     81  69  67 CALM      29.87F
KIRKSVILLE     PTSUNNY   78  68  71 W5        29.87F

$$
MOZ066>068-077>081-088>096-101>105-020000-
...SOUTHWEST MISSOURI...

CITY           SKY/WX    TMP DP  RH WIND       PRES   REMARKS
SPRINGFIELD    MOSUNNY   84  69  60 S15       29.89S
JOPLIN         CLOUDY    86  71  60 S14       29.85S HX  91

$$
MOZ032>034-039>042-045>050-055>058-069>072-020000-
...CENTRAL MISSOURI...

CITY           SKY/WX    TMP DP  RH WIND       PRES   REMARKS
COLUMBIA       LGT RAIN  79  68  69 NE3       29.87F
JEFFERSON CITY CLOUDY    80  68  66 SE5       29.86F
ROLLA          CLOUDY    79  68  69 SE3       29.89F
SEDALIA        TSTM      72  69  90 CALM      29.90R VSB 1/4
WHITEMAN AFB   LGT RAIN  73  72  94 S5        29.88S FOG
OSAGE BEACH    CLOUDY    81  70  69 SE3       29.88F

$$
MOZ051-052-059>065-020000-
...EAST CENTRAL MISSOURI...

CITY           SKY/WX    TMP DP  RH WIND       PRES   REMARKS
ST LOUIS INTL  MOSUNNY   85  66  53 SW8       29.91S
SPIRIT OF STL  PTSUNNY   82  67  60 CALM      29.88F
ST CHARLES     MOSUNNY   84  65  52 W7        29.88F

$$
MOZ072>076-082>087-097>100-106>115-020000-
...SOUTH CENTRAL AND SOUTHEAST MISSOURI...

CITY           SKY/WX    TMP DP  RH WIND       PRES   REMARKS
CAPE GIRARDEAU MOSUNNY   84  74  71 SW7       29.92S HX  91
FARMINGTON     PTSUNNY   82  68  61 S8        29.95S
POPLAR BLUFF   SUNNY     86  70  58 SW12G20   29.91R HX  90
WEST PLAINS    SUNNY     85  68  56 S13G22    29.94S

$$


USA.gov is the U.S. government's official web portal to all federal, state and local government web resources and services.